Starlink 35259

operational
NORAD ID: 66198 Int'l Des: 2025-243 Owner: SPXS Country: US Constellation: starlink
LEOCIRCULAR

Starlink 35259について

説明を読み込み中...

リアルタイム位置

3D地球を読み込み中...

次回通過

高度履歴

Altitude vs Time

uPlot chart will show altitude changes over time

軌道要素

1 66198C 25243W 25299.73520833 .00886960 00000+0 14503-2 0 2998
2 66198 53.1579 157.0766 0009329 275.3429 15.9631 16.01569862 19
Epoch: Oct 26, 2025 • Age: 126 hours

現在のステータス

高度 253.1 km
速度 7.76 km/s
衛星直下点 53.02°N, 88.39°E
打ち上げ日 Oct 26, 2025
運用期間 4 days
タイプ internet

技術仕様

分類 Payload
質量 575.00 kg
乾燥質量 530.00 kg
総質量 575.00 kg
長さ 0.30 m
直径 4.10 m
スパン 29.00 m
形状 Box + pan
製造者 SPXS
バスタイプ Starlink V2MO
フェーズステータス In Orbit
所有者/国 SPXS/US

大規模コンステレーション

Loading constellations...